Home   Weather   Narragansett   Past weeks

Flag for USA Past Weather in Narragansett, Rhode Island, USA — Yesterday and Last 2 Weeks

Now
54 °F

Fog.


Feels Like: 54 °F
Forecast: 48 / 56 °F
Wind: 3 mph from North

Location: Newport State Airport

Current Time: Apr 27, 2017 at 9:14:57 am

Latest Report: Apr 27, 2017 at 8:36 am


Visibility: 1 mi

Pressure: 29.93 "Hg

Humidity: 100%

Dew Point: 54 °F

Location of NarragansettLocation

Past Weather in Narragansett — Graph

°F

Narragansett Temperature Yesterday

Maximum temperature yesterday: 58 °F (at 8:08 am)
Minimum temperature yesterday: 52 °F (at 10:20 pm)
Average temperature yesterday: 56 °F

High & Low Weather Summary for the Past Weeks

 TemperatureHumidityPressure
High73 °F (Apr 17, 11:53 am)100% (Apr 16, 2:29 am)30.58 "Hg (Apr 16, 2:29 am)
Low37 °F (Apr 14, 2:53 am)25% (Apr 17, 3:53 pm)29.73 "Hg (Apr 16, 6:53 pm)
Average51 °F83%30.10 "Hg
* Reported Apr 12 8:53 am — Apr 27 8:11 am, Narragansett, Weather by CustomWeather, © 2017

Note: Actual official high and low records may vary slightly from our data, if they occured in-between our weather recording intervals... More about our weather records

Advertising

Narragansett Weather History for the Previous 24 Hours

Scroll right to see more
 ConditionsComfort  
Time TempWeatherWind HumidityBarometerVisibility
8:11 am
Thu, Apr 27
54 °FFog.6 mph100%29.92 "Hg0 mi
8:01 am54 °FFog.6 mph100%29.91 "Hg2 mi
6:53 am54 °FFog.5 mph100%29.88 "Hg0 mi
5:53 am54 °FFog.6 mph100%29.87 "Hg0 mi
5:34 am54 °FFog.5 mph100%29.87 "Hg1 mi
5:23 am54 °FFog.6 mph100%29.86 "Hg2 mi
4:53 am55 °FFog.3 mph100%29.84 "Hg3 mi
4:33 am55 °FFog.7 mph100%29.84 "Hg2 mi
3:53 am55 °FFog.8 mph100%29.83 "Hg1 mi
3:44 am55 °FFog.6 mph100%29.83 "Hg2 mi
3:18 am55 °FFog.8 mph100%29.83 "Hg1 mi
2:53 am55 °FFog.8 mph100%29.83 "Hg1 mi
1:53 am54 °FFog.3 mph100%29.83 "Hg0 mi
1:09 am55 °FFog.3 mph100%29.84 "Hg1 mi
1:01 am54 °FFog.No wind100%29.84 "Hg1 mi
12:36 am55 °FMostly cloudy.3 mph100%29.84 "Hg8 mi
11:53 pm
Wed, Apr 26
54 °FMostly cloudy.3 mph100%29.84 "Hg10 mi
11:42 pm54 °FOvercast.No wind100%29.84 "Hg8 mi
10:53 pm53 °FMostly cloudy.5 mph100%29.84 "Hg10 mi
10:28 pm52 °FFog.No wind100%29.84 "Hg2 mi
10:20 pm52 °FFog.No wind100%29.84 "Hg2 mi
8:53 pm53 °FFog.10 mph100%29.80 "Hg0 mi
7:53 pm57 °FLight rain. Mostly cloudy.3 mph100%29.78 "Hg10 mi
6:53 pm57 °FLow clouds.3 mph100%29.78 "Hg10 mi
6:34 pm58 °FLow clouds.5 mph100%29.78 "Hg10 mi
5:53 pm58 °FLow clouds.5 mph100%29.77 "Hg10 mi
4:53 pm58 °FLow clouds.5 mph100%29.77 "Hg9 mi
4:30 pm57 °FLight rain. Fog.5 mph100%29.78 "Hg3 mi
4:19 pm57 °FLight rain. Fog.3 mph100%29.78 "Hg2 mi
3:53 pm56 °FLight rain. Fog.No wind100%29.78 "Hg1 mi
3:37 pm56 °FLight rain. Fog.No wind100%29.78 "Hg1 mi
2:53 pm55 °FFog.8 mph100%29.78 "Hg0 mi
1:53 pm56 °FFog.8 mph100%29.80 "Hg0 mi
12:53 pm56 °FRain. Fog.10 mph100%29.80 "Hg0 mi
11:53 am57 °FFog.10 mph100%29.80 "Hg0 mi
10:53 am55 °FLight rain. Fog.12 mph100%29.81 "Hg0 mi
9:53 am56 °FFog.12 mph100%29.80 "Hg0 mi
Weather by CustomWeather, © 2017

See weather overviewHow to use our weather pages